• In Hungary
  • List of Countries
  • For 7 days
  • Water Temperature
  • Satellite Maps
  • Weather Map
  • News
  • Weather Widgets
  • user-avatar
    Login

    Hourly Weather Bregenz

    Today, 21 January, Sunday

    Time Temperature Precipitation Wind Pressure Humidity
    00:00 -4°C° 2.2 mm 4 mps 633 mmHg 96%
    01:00 -2°C° 0 mm 3 mps 634 mmHg 96%
    02:00 -3°C° 1.2 mm 4 mps 634 mmHg 95%
    03:00 -3°C° 1.2 mm 4 mps 635 mmHg 95%
    04:00 -3°C° 1.2 mm 4 mps 635 mmHg 95%
    05:00 -3°C° 1 mm 4 mps 636 mmHg 95%
    06:00 -4°C° 1 mm 4 mps 636 mmHg 94%
    07:00 -4°C° 1 mm 4 mps 637 mmHg 94%
    08:00 -5°C° 0.7 mm 4 mps 638 mmHg 93%
    09:00 -5°C° 0.7 mm 4 mps 639 mmHg 93%
    10:00 -5°C° 0.7 mm 4 mps 639 mmHg 92%
    11:00 -5°C° 0.6 mm 4 mps 640 mmHg 91%
    12:00 -5°C° 0.6 mm 4 mps 641 mmHg 90%
    13:00 -5°C° 0.6 mm 3 mps 641 mmHg 89%
    14:00 -5°C° 0.5 mm 3 mps 642 mmHg 90%
    15:00 -4°C° 0.5 mm 2 mps 642 mmHg 90%
    16:00 -2°C° 0.5 mm 1 mps 643 mmHg 90%
    17:00 -3°C° 0.5 mm 1 mps 643 mmHg 91%
    18:00 -3°C° 0.5 mm 1 mps 643 mmHg 91%
    19:00 -4°C° 0.5 mm 1 mps 643 mmHg 92%
    20:00 -4°C° 0.7 mm 1 mps 643 mmHg 92%
    21:00 -6°C° 0.7 mm 2 mps 643 mmHg 92%
    22:00 -6°C° 0.7 mm 2 mps 643 mmHg 93%
    23:00 -5°C° 0.9 mm 2 mps 642 mmHg 93%

    Tomorrow, 22 January, Monday

    Time Temperature Precipitation Wind Pressure Humidity
    00:00 -5°C° 0.9 mm 2 mps 642 mmHg 94%
    01:00 -4°C° 0.9 mm 2 mps 642 mmHg 95%
    02:00 -3°C° 2.6 mm 2 mps 641 mmHg 95%
    03:00 -2°C° 2.6 mm 2 mps 641 mmHg 96%
    04:00 -2°C° 2.6 mm 2 mps 641 mmHg 97%
    05:00 -1°C° 3.5 mm 3 mps 641 mmHg 97%
    06:00 -1°C° 3.5 mm 3 mps 641 mmHg 97%
    07:00 -1°C° 3.5 mm 4 mps 641 mmHg 98%
    08:00 0°C° 2.3 mm 3 mps 641 mmHg 98%
    09:00 0°C° 2.3 mm 3 mps 641 mmHg 98%
    10:00 0°C° 2.3 mm 3 mps 641 mmHg 98%
    11:00 0°C° 2.4 mm 3 mps 641 mmHg 98%
    12:00 0°C° 2.4 mm 3 mps 641 mmHg 98%
    13:00 0°C° 2.4 mm 3 mps 641 mmHg 98%
    14:00 +1°C° 2.2 mm 2 mps 641 mmHg 98%
    15:00 +1°C° 2.2 mm 2 mps 641 mmHg 98%
    16:00 +1°C° 2.2 mm 2 mps 641 mmHg 98%
    17:00 +1°C° 1.5 mm 2 mps 642 mmHg 98%
    18:00 +1°C° 1.5 mm 2 mps 643 mmHg 98%
    19:00 +1°C° 1.5 mm 2 mps 643 mmHg 98%
    20:00 -1°C° 0.4 mm 2 mps 644 mmHg 98%
    21:00 -1°C° 0.4 mm 2 mps 645 mmHg 97%
    22:00 -1°C° 0.4 mm 2 mps 646 mmHg 97%
    23:00 -1°C° 0.1 mm 2 mps 646 mmHg 96%

    Day after tomorrow, 23 January, Tuesday

    Time Temperature Precipitation Wind Pressure Humidity
    00:00 -2°C° 0.1 mm 2 mps 646 mmHg 96%
    01:00 -2°C° 0.1 mm 2 mps 647 mmHg 95%
    02:00 -3°C° 0 mm 2 mps 647 mmHg 94%
    03:00 -3°C° 0 mm 2 mps 647 mmHg 93%
    04:00 -4°C° 0 mm 2 mps 647 mmHg 92%
    05:00 -4°C° 0 mm 2 mps 647 mmHg 90%
    06:00 -5°C° 0 mm 2 mps 648 mmHg 89%
    07:00 -5°C° 0 mm 2 mps 648 mmHg 87%
    08:00 -4°C° 0 mm 2 mps 648 mmHg 86%
    09:00 -3°C° 0 mm 2 mps 649 mmHg 85%
    10:00 -2°C° 0 mm 2 mps 649 mmHg 84%
    11:00 +1°C° 0 mm 1 mps 649 mmHg 86%
    12:00 +2°C° 0 mm 1 mps 649 mmHg 87%
    13:00 +3°C° 0 mm 1 mps 649 mmHg 89%
    14:00 +3°C° 0 mm 1 mps 649 mmHg 87%
    15:00 +2°C° 0 mm 1 mps 649 mmHg 85%
    16:00 +2°C° 0 mm 1 mps 649 mmHg 83%
    17:00 +1°C° 0 mm 1 mps 649 mmHg 80%
    18:00 -2°C° 0 mm 2 mps 649 mmHg 77%
    19:00 -4°C° 0 mm 2 mps 649 mmHg 74%
    20:00 -4°C° 0 mm 2 mps 649 mmHg 73%
    21:00 -4°C° 0 mm 2 mps 649 mmHg 72%
    22:00 -4°C° 0 mm 2 mps 650 mmHg 71%
    23:00 -3°C° 0.1 mm 2 mps 650 mmHg 72%

    24 January, Wednesday

    Time Temperature Precipitation Wind Pressure Humidity
    00:00 -3°C° 0.1 mm 2 mps 650 mmHg 72%
    01:00 -2°C° 0.1 mm 2 mps 650 mmHg 72%
    02:00 -2°C° 0 mm 2 mps 650 mmHg 72%
    03:00 -2°C° 0 mm 2 mps 650 mmHg 72%
    04:00 -2°C° 0 mm 2 mps 650 mmHg 72%
    05:00 -2°C° 0 mm 2 mps 650 mmHg 72%
    06:00 -2°C° 0 mm 2 mps 650 mmHg 72%
    07:00 -2°C° 0 mm 2 mps 650 mmHg 72%
    08:00 -1°C° 0 mm 2 mps 650 mmHg 75%
    09:00 -1°C° 0 mm 2 mps 650 mmHg 77%
    10:00 +1°C° 0 mm 2 mps 650 mmHg 79%
    11:00 +2°C° 0 mm 2 mps 650 mmHg 83%
    12:00 +4°C° 0 mm 1 mps 650 mmHg 86%
    13:00 +5°C° 0 mm 1 mps 650 mmHg 90%
    14:00 +4°C° 0 mm 1 mps 649 mmHg 89%
    15:00 +3°C° 0 mm 2 mps 649 mmHg 88%
    16:00 +3°C° 0 mm 2 mps 649 mmHg 87%
    17:00 +2°C° 0 mm 2 mps 648 mmHg 83%
    18:00 +1°C° 0 mm 2 mps 648 mmHg 80%
    19:00 -1°C° 0 mm 2 mps 648 mmHg 76%
    20:00 -2°C° 0 mm 2 mps 648 mmHg 75%
    21:00 -2°C° 0 mm 3 mps 648 mmHg 74%
    22:00 -2°C° 0 mm 3 mps 648 mmHg 73%
    23:00 -2°C° 0 mm 3 mps 647 mmHg 73%

    25 January, Thursday

    Time Temperature Precipitation Wind Pressure Humidity
    00:00 -2°C° 0 mm 3 mps 647 mmHg 72%
    01:00 -2°C° 0 mm 3 mps 647 mmHg 72%
    02:00 -2°C° 0 mm 3 mps 647 mmHg 73%
    03:00 -2°C° 0 mm 3 mps 647 mmHg 73%
    04:00 -2°C° 0 mm 2 mps 646 mmHg 73%
    05:00 -3°C° 0 mm 2 mps 646 mmHg 73%
    06:00 -3°C° 0 mm 2 mps 646 mmHg 74%
    07:00 -3°C° 0 mm 2 mps 646 mmHg 74%
    08:00 -2°C° 0 mm 2 mps 646 mmHg 74%
    09:00 -1°C° 0 mm 2 mps 646 mmHg 75%
    10:00 -1°C° 0 mm 2 mps 646 mmHg 76%
    11:00 +1°C° 0 mm 2 mps 646 mmHg 79%
    12:00 +2°C° 0 mm 2 mps 646 mmHg 83%
    13:00 +3°C° 0 mm 2 mps 646 mmHg 86%
    14:00 +3°C° 0 mm 2 mps 645 mmHg 86%
    15:00 +4°C° 0 mm 1 mps 645 mmHg 86%
    16:00 +3°C° 0 mm 1 mps 644 mmHg 86%
    17:00 +1°C° 0 mm 2 mps 644 mmHg 85%
    18:00 +1°C° 0 mm 2 mps 644 mmHg 84%
    19:00 -1°C° 0 mm 2 mps 644 mmHg 83%
    20:00 -1°C° 0 mm 2 mps 643 mmHg 83%
    21:00 -1°C° 0 mm 2 mps 643 mmHg 82%
    22:00 -2°C° 0 mm 2 mps 643 mmHg 82%
    23:00 -2°C° 0 mm 2 mps 643 mmHg 83%

    26 January, Friday

    Time Temperature Precipitation Wind Pressure Humidity
    00:00 -2°C° 0 mm 2 mps 643 mmHg 84%
    01:00 -2°C° 0 mm 2 mps 643 mmHg 85%
    02:00 -3°C° 0 mm 2 mps 642 mmHg 86%
    03:00 -3°C° 0 mm 2 mps 642 mmHg 87%
    04:00 -3°C° 0 mm 2 mps 642 mmHg 88%
    05:00 -3°C° 0.1 mm 2 mps 642 mmHg 88%
    06:00 -3°C° 0.1 mm 2 mps 642 mmHg 89%
    07:00 -4°C° 0.1 mm 2 mps 642 mmHg 89%
    08:00 -3°C° 0.7 mm 2 mps 642 mmHg 90%
    09:00 -3°C° 0.7 mm 2 mps 642 mmHg 92%
    10:00 0°C° 0.7 mm 1 mps 643 mmHg 93%
    11:00 0°C° 1.6 mm 1 mps 643 mmHg 94%
    12:00 -2°C° 1.6 mm 2 mps 643 mmHg 95%
    13:00 -2°C° 1.6 mm 2 mps 643 mmHg 96%
    14:00 -3°C° 1.7 mm 2 mps 643 mmHg 96%
    15:00 -3°C° 1.7 mm 2 mps 644 mmHg 96%
    16:00 -1°C° 1.7 mm 1 mps 644 mmHg 97%
    17:00 -2°C° 1.3 mm 1 mps 644 mmHg 97%
    18:00 -2°C° 1.3 mm 1 mps 645 mmHg 97%
    19:00 -2°C° 1.3 mm 1 mps 645 mmHg 97%
    20:00 -2°C° 0.7 mm 1 mps 645 mmHg 97%
    21:00 -3°C° 0.7 mm 1 mps 646 mmHg 97%
    22:00 -3°C° 0.7 mm 1 mps 646 mmHg 97%
    23:00 -3°C° 0.5 mm 1 mps 646 mmHg 97%
    Show more